Rogers, AR

3:35 PM CDT on May 24, 2017 (GMT -0500)
Rogers Municipal-Carter

Weather History for KROG - November, 2013

Change the Weather History Date:

Sunday, November 10, 2013

  Actual Average Record
Temperature  
Mean Temperature 54 °F -  
Max Temperature 64 °F 56 °F 73 °F (2012)
Min Temperature 45 °F 39 °F 21 °F (2000)
Degree Days  
Heating Degree Days 10    
Growing Degree Days 4 (Base 50)    
Moisture  
Dew Point 40 °F    
Average Humidity 60    
Maximum Humidity 90    
Minimum Humidity 36    
Precipitation  
Precipitation 0.00 in - - ()
Sea Level Pressure  
Sea Level Pressure 30.32 in    
Wind  
Wind Speed 4 mph (East)    
Max Wind Speed 15 mph    
Max Gust Speed -    
Visibility 10 miles    
Events      
Averages and records for this station are not official NWS values.
T = Trace of Precipitation, MM = Missing Value Source: NWS Daily Summary

Daily Weather History Graph

Daily Weather History Graph

Search for Another Location

Airport or City:

Trip Planner

Search our weather history database for the weather conditions in past years. The results will help you decide how hot, cold, wet, or windy it might be!

Date:

Astronomy

Nov. 10, 2013 Rise Set
Actual Time 6:48 AM CST 5:11 PM CST
Civil Twilight 6:21 AM CST 5:38 PM CST
Nautical Twilight 5:50 AM CST 6:09 PM CST
Astronomical Twilight 5:20 AM CST 6:39 PM CST
Moon 1:06 PM CST (11/10) No Moon Set
Length of Visible Light 11h 16m
Length of Day
10h 22m
First Quarter, 56% of the Moon is Illuminated
Nov 10
First Quarter
Nov 17
Full
Nov 25
Last Quarter
Dec 2
New
Dec 9
First Quarter

Hourly Weather History & Observations

Time (CST) Temp. Windchill Dew Point Humidity Pressure Visibility Wind Dir Wind Speed Gust Speed Precip Events Conditions
12:57 AM 51.1 °F - 44.1 °F 77% 30.30 in 10.0 mi Calm Calm - N/A   Overcast
1:57 AM 51.1 °F - 45.0 °F 80% 30.30 in 10.0 mi Calm Calm - N/A   Overcast
2:57 AM 50.0 °F - 44.1 °F 80% 30.30 in 10.0 mi Calm Calm - N/A   Overcast
3:57 AM 52.0 °F - 44.1 °F 74% 30.31 in 10.0 mi Calm Calm - N/A   Overcast
4:57 AM 50.0 °F - 44.1 °F 80% 30.32 in 10.0 mi NNE 3.5 mph - N/A   Overcast
5:57 AM 48.0 °F - 42.1 °F 80% 30.34 in 10.0 mi Calm Calm - N/A   Clear
6:57 AM 45.0 °F 42.6 °F 42.1 °F 90% 30.36 in 10.0 mi NE 4.6 mph - N/A   Clear
7:57 AM 50.0 °F - 44.1 °F 80% 30.37 in 10.0 mi ENE 8.1 mph - N/A   Clear
8:57 AM 55.0 °F - 37.9 °F 53% 30.38 in 10.0 mi East 15.0 mph - N/A   Clear
9:57 AM 57.0 °F - 37.0 °F 47% 30.38 in 10.0 mi East 11.5 mph - N/A   Clear
10:57 AM 59.0 °F - 36.0 °F 42% 30.38 in 10.0 mi ENE 8.1 mph - N/A   Clear
11:57 AM 62.1 °F - 35.1 °F 37% 30.36 in 10.0 mi East 8.1 mph - N/A   Clear
12:57 PM 63.0 °F - 36.0 °F 37% 30.32 in 10.0 mi ESE 8.1 mph - N/A   Clear
1:57 PM 64.9 °F - 37.0 °F 36% 30.31 in 10.0 mi Variable 3.5 mph - N/A   Clear
2:57 PM 64.0 °F - 37.0 °F 37% 30.30 in 10.0 mi NE 3.5 mph - N/A   Clear
3:57 PM 64.9 °F - 37.0 °F 36% 30.29 in 10.0 mi East 4.6 mph - N/A   Clear
4:57 PM 62.1 °F - 37.9 °F 41% 30.29 in 10.0 mi ESE 5.8 mph - N/A   Clear
5:57 PM 59.0 °F - 37.9 °F 46% 30.30 in 10.0 mi East 5.8 mph - N/A   Clear
6:57 PM 55.9 °F - 39.0 °F 53% 30.30 in 10.0 mi East 8.1 mph - N/A   Clear
7:57 PM 52.0 °F - 42.1 °F 69% 30.31 in 10.0 mi Calm Calm - N/A   Clear
8:57 PM 51.1 °F - 39.9 °F 66% 30.31 in 10.0 mi SE 5.8 mph - N/A   Clear
9:57 PM 50.0 °F - 39.9 °F 68% 30.30 in 10.0 mi SE 4.6 mph - N/A   Clear
10:57 PM 51.1 °F - 39.9 °F 66% 30.29 in 10.0 mi SSE 6.9 mph - N/A   Clear
11:57 PM 48.9 °F - 39.9 °F 71% 30.28 in 10.0 mi SE 5.8 mph - N/A   Mostly Cloudy